Wind_Speed
9 9 10 10 11 12 13 14 15 14 10 6 5 4 5 7 8 7 6 7 10 13 13 14 14 12 11 6 5 10 10 10 10 6 4 3 2 4 4 4 5 9 10 12 17 14 14
8 8 9 9 11 11 13 14 15 16 16 12 6 5 6 7 9 10 9 9 9 11 12 12 12 10 10 7 10 10 10 9 9 7 6 3 2 3 2 2 8 7 9 10 9 18 15
7 7 8 9 9 10 12 14 15 17 18 16 9 6 7 8 8 9 11 10 8 9 10 10 11 7 4 6 11 10 10 9 9 8 4 4 1 2 1 4 6 11 12 12 15 19 14
6 7 7 8 9 10 11 13 15 17 19 19 13 7 9 9 7 7 9 10 8 8 7 9 8 6 2 10 11 10 8 8 8 8 6 4 3 1 3 4 5 5 5 6 5 9 10
5 6 6 6 8 9 10 12 14 17 19 20 16 8 11 9 6 4 6 8 7 7 5 8 6 4 2 9 12 9 8 7 8 6 5 1 2 3 4 5 4 5 6 6 9 5 7
5 5 5 6 6 7 9 11 13 15 18 21 18 9 12 9 7 2 4 6 6 8 5 3 5 2 3 9 12 6 7 7 5 7 3 3 3 3 4 5 3 1 3 3 7 5 9
4 4 5 5 7 7 8 10 13 15 18 21 19 10 12 8 6 1 2 3 4 3 3 1 2 3 8 11 7 6 7 8 4 2 3 3 6 6 7 4 5 3 7 10 9 6 8
3 3 5 6 7 8 8 10 12 14 17 20 20 11 12 7 5 2 1 2 2 1 2 5 6 6 7 8 5 5 7 4 3 5 3 3 7 8 7 8 8 7 7 5 5 2 5
5 4 4 6 7 9 10 10 12 14 16 19 19 11 12 7 4 3 1 2 2 2 2 3 4 4 5 7 3 5 7 5 5 4 5 5 7 8 5 7 9 10 12 4 2 5 3
6 7 7 6 7 8 9 10 11 14 15 18 18 11 12 8 4 4 1 1 1 1 2 1 2 1 4 6 3 7 6 3 3 6 6 6 3 6 9 8 6 7 7 7 8 3 2
9 8 9 10 10 9 10 10 10 12 14 17 17 11 11 9 5 3 2 1 1 1 1 1 2 4 6 3 7 2 6 3 6 7 4 3 4 8 7 5 7 6 10 6 5 7 4
10 10 11 11 11 12 11 13 13 13 14 15 17 12 9 8 5 3 1 0 1 1 3 2 3 3 4 1 1 6 2 4 5 5 5 7 3 2 3 6 3 8 7 6 3 4 2
11 10 11 12 12 12 12 12 13 14 14 15 16 14 8 7 4 1 1 2 1 1 1 3 3 3 4 3 3 4 4 4 4 6 4 6 2 2 4 3 4 3 6 3 2 2 3
15 14 14 14 14 14 13 12 13 13 14 14 16 13 10 8 4 1 1 2 1 2 3 1 1 5 3 4 1 3 4 2 1 2 4 4 3 2 2 4 5 1 1 1 4 4 5
15 15 16 17 18 17 16 15 13 12 13 14 16 15 10 7 5 1 2 1 4 4 1 2 2 3 1 0 3 4 1 2 1 1 4 4 4 1 1 1 3 3 2 4 3 1 3
17 17 17 16 18 18 20 19 18 16 13 13 15 15 9 5 4 1 0 3 2 2 3 2 2 1 3 2 3 3 2 2 1 1 1 2 7 2 2 2 3 2 1 2 0 4 4
23 21 19 18 18 17 17 19 19 19 16 14 12 7 4 4 3 1 2 3 3 5 4 4 3 3 4 3 2 2 2 1 2 2 2 2 2 1 2 1 2 1 1 1 2 3 3
25 24 24 22 20 20 20 17 18 17 16 12 7 3 4 4 2 2 2 4 2 3 5 4 2 5 4 4 3 3 3 3 4 2 2 2 3 5 2 2 1 2 2 2 3 1 1
20 23 25 25 24 23 21 20 18 18 13 10 5 5 7 7 3 3 2 3 5 5 5 4 3 5 2 4 3 5 3 2 6 4 2 3 2 6 1 3 3 3 2 1 1 1 4
21 22 23 25 26 26 24 22 19 17 15 7 4 2 4 9 6 2 3 4 3 5 3 5 2 3 3 4 6 3 3 3 6 4 3 3 3 7 7 8 2 6 4 5 4 3 1
22 23 24 24 26 25 25 25 22 18 15 10 8 7 5 3 7 7 4 3 3 5 5 8 3 9 7 3 3 5 4 2 4 4 4 3 5 4 12 16 11 12 13 11 12 10 6
24 25 24 24 24 26 26 26 24 22 19 19 8 6 6 3 4 8 6 6 8 4 8 5 6 4 10 6 7 4 4 4 4 4 4 3 3 2 7 3 4 7 11 9 12 13 13
23 24 26 25 23 23 26 28 29 27 25 19 20 17 7 5 5 6 6 7 8 7 9 6 10 5 8 15 15 11 8 4 3 4 7 4 3 2 5 2 10 7 2 7 4 6 6
27 26 26 27 27 26 24 27 31 34 36 32 20 16 11 8 10 9 6 9 9 12 3 3 10 6 3 3 2 4 5 5 6 8 4 3 2 2 4 6 4 2 2 1 4 4 10
28 29 28 27 30 30 29 26 33 37 42 39 38 24 10 10 16 15 14 8 8 9 6 8 11 9 6 3 1 4 2 2 1 2 5 5 4 3 3 3 6 1 2 2 1 5 7
26 27 26 29 31 36 39 36 34 41 46 46 42 41 20 9 13 20 12 14 9 6 4 6 7 12 10 3 2 3 3 2 2 2 3 3 2 4 2 3 3 4 2 1 1 4 10
23 30 35 34 31 37 42 41 36 43 45 50 40 41 35 17 22 12 11 9 10 7 3 5 7 7 12 4 4 5 4 1 3 5 5 4 4 10 8 3 5 3 3 2 3 3 6
23 27 32 33 29 34 41 41 32 40 46 51 49 43 45 24 27 19 25 12 10 9 6 9 7 4 3 6 5 4 4 3 3 2 5 8 8 4 4 5 7 5 2 4 2 2 4
25 26 30 32 31 30 36 28 24 36 44 50 42 44 43 30 19 30 34 24 28 18 16 17 2 7 11 3 4 3 3 3 3 4 2 5 5 6 8 4 2 4 4 3 7 8 8
Wind_Direction
66 61 56 51 47 44 40 36 33 29 17 355 345 328 291 271 263 265 289 318 340 358 2 7 7 11 22 34 4 5 356 1 5 3 352 356 324 297 269 308 281 245 261 256 258 259 253
72 65 54 47 44 38 37 35 30 26 21 10 348 334 331 298 270 261 263 284 315 341 352 1 4 8 25 38 1 8 1 353 359 353 336 340 22 326 290 23 270 322 288 275 270 254 254
70 60 50 44 38 37 33 31 27 22 17 14 2 344 332 324 293 270 255 261 292 322 343 344 358 1 19 15 12 355 359 -0 4 0 337 13 9 254 53 276 247 278 277 274 253 244 235
61 61 46 38 34 30 29 26 22 19 15 11 7 350 344 329 310 283 252 250 272 308 336 339 350 340 300 357 5 4 357 357 2 15 350 320 342 263 253 263 265 258 263 292 30 241 226
58 54 48 36 30 25 24 22 19 14 12 9 6 360 349 341 327 300 241 241 262 298 318 336 338 337 352 338 348 352 353 335 331 347 359 5 305 279 230 242 254 204 290 272 305 210 235
48 37 35 25 22 21 17 16 14 13 8 6 6 1 356 352 343 318 215 239 264 293 301 341 344 329 319 330 328 329 333 330 320 318 296 274 283 312 232 232 281 189 297 288 271 311 228
35 28 16 11 9 6 11 9 7 8 6 5 2 0 356 4 4 70 192 254 285 283 241 258 310 270 304 329 316 324 321 318 310 298 331 318 283 291 257 244 320 275 296 306 286 320 210
359 7 355 350 359 358 1 1 2 1 3 2 0 358 358 1 15 13 232 233 275 243 309 264 277 298 312 330 312 315 324 297 278 305 298 241 271 332 289 258 254 272 298 295 299 19 240
322 328 339 341 349 351 351 358 356 356 358 359 0 359 358 355 6 8 303 246 284 320 281 278 279 293 308 323 289 297 327 307 280 277 307 267 304 324 225 251 247 245 236 276 29 307 213
316 320 324 330 337 344 342 349 354 352 353 356 358 1 0 355 18 358 342 290 295 327 290 230 263 268 314 307 264 303 316 295 263 304 328 276 312 325 300 280 274 272 214 257 227 273 342
318 323 325 326 328 333 334 339 345 349 350 352 356 354 2 358 351 342 322 289 304 95 340 124 267 291 295 248 314 238 320 286 282 301 288 310 297 335 335 1 350 346 337 297 263 238 292
330 329 328 325 324 325 330 333 338 341 345 348 350 349 352 355 356 348 346 147 105 241 281 11 303 326 323 228 271 305 317 302 285 295 229 280 309 266 301 306 194 281 292 254 229 265 253
318 317 318 319 318 318 320 325 330 334 338 341 345 344 332 345 338 337 157 138 336 354 103 350 334 345 327 294 311 351 342 1 354 342 355 318 178 202 255 264 168 327 321 309 293 333 357
318 318 315 312 312 314 312 315 320 325 328 333 337 339 323 322 321 307 187 226 51 203 268 39 317 296 280 339 243 314 298 304 152 318 302 343 312 338 11 340 329 340 269 288 305 328 326
304 307 310 311 313 311 311 311 310 316 319 326 329 330 309 299 296 287 308 255 211 201 170 278 280 288 269 263 300 320 236 303 308 261 323 321 273 302 252 12 327 25 317 13 286 198 265
294 296 296 301 305 309 311 311 310 309 312 319 326 324 292 268 270 268 225 265 237 213 150 176 240 210 293 312 308 316 297 137 240 220 252 11 294 170 348 293 150 327 12 285 252 323 330
288 286 289 296 295 295 299 302 306 307 310 316 325 316 259 247 259 192 219 242 240 227 190 183 221 236 237 282 250 265 286 229 205 155 221 265 251 293 248 131 1 309 262 343 297 302 317
282 281 287 285 290 298 296 291 293 298 306 310 310 281 239 217 241 266 230 196 191 189 204 266 266 255 228 196 246 249 254 239 175 188 254 169 293 277 298 133 224 259 290 282 295 359 307
287 277 274 280 282 286 292 295 293 289 288 300 275 257 251 212 241 212 260 253 215 164 199 183 244 219 252 248 256 220 225 217 177 200 237 172 235 299 244 157 175 241 210 219 194 279 240
287 284 281 277 273 279 279 285 290 285 277 262 263 263 218 200 236 252 221 231 231 210 189 193 226 164 169 249 243 284 251 208 199 209 190 177 259 252 272 309 345 272 222 222 239 258 268
292 288 288 283 278 266 277 270 279 281 258 233 220 241 220 202 221 203 197 192 196 210 216 196 197 223 193 238 225 235 237 248 202 203 160 226 260 224 264 274 276 269 261 242 229 240 246
304 299 291 288 284 275 258 269 260 269 253 228 220 209 204 257 203 180 194 212 211 209 169 208 221 182 204 228 227 269 204 221 255 170 205 189 262 271 285 254 229 266 262 237 236 248 259
313 307 300 291 290 282 269 252 262 254 247 231 234 233 211 202 182 185 208 198 211 189 223 197 201 173 206 236 250 262 240 260 274 214 203 207 249 290 272 333 302 271 251 186 184 209 223
316 316 312 305 290 290 284 257 246 252 247 240 229 226 215 237 205 206 196 196 199 212 230 200 192 184 210 188 275 270 257 242 229 235 237 198 211 236 284 316 242 68 141 209 245 266 220
321 313 316 309 306 292 286 275 249 244 250 235 233 222 224 249 226 225 214 200 209 220 232 225 209 215 185 144 250 300 229 242 173 44 225 225 224 258 265 269 314 248 210 174 237 63 358
321 323 314 310 306 304 293 277 266 238 242 237 234 224 229 254 235 232 209 204 212 199 175 215 207 194 173 147 167 220 259 304 222 164 82 164 240 231 204 252 280 38 32 302 335 90 9
309 309 312 309 310 306 302 290 261 236 227 239 224 224 223 234 243 212 217 215 185 182 155 138 167 179 179 167 188 208 235 191 241 204 177 173 188 222 222 267 281 319 296 165 220 76 356
321 322 323 325 317 310 303 298 251 233 219 229 221 221 216 231 236 233 224 191 167 192 191 150 130 178 156 190 192 197 211 206 267 178 187 191 178 185 178 198 243 3 318 351 36 357 6
320 320 324 330 323 313 327 314 272 227 220 219 215 219 216 221 242 234 237 237 238 244 216 182 221 156 176 159 199 147 186 185 227 251 187 233 226 174 200 212 102 43 80 88 6 339 341
Height
1574 1574 1573 1573 1572 1571 1569 1568 1566 1563 1562 1560 1559 1558 1557 1556 1556 1555 1555 1554 1553 1551 1548 1546 1544 1541 1539 1539 1539 1535 1532 1530 1528 1526 1525 1524 1523 1522 1518 1518 1519 1517 1515 1515 1514 1514 1513
1575 1574 1574 1574 1573 1572 1570 1568 1566 1564 1561 1559 1558 1557 1556 1555 1554 1553 1553 1553 1552 1550 1548 1547 1544 1542 1540 1539 1538 1535 1533 1531 1529 1527 1525 1523 1523 1523 1522 1521 1521 1517 1514 1512 1511 1511 1510
1576 1576 1575 1575 1574 1572 1570 1568 1566 1564 1562 1559 1557 1555 1554 1553 1552 1551 1551 1551 1550 1549 1547 1546 1545 1543 1541 1542 1537 1535 1533 1531 1529 1527 1526 1524 1523 1523 1522 1521 1519 1516 1512 1507 1505 1505 1505
1577 1577 1576 1575 1574 1573 1571 1569 1567 1564 1562 1559 1556 1555 1553 1552 1550 1548 1548 1549 1549 1548 1546 1545 1544 1543 1542 1539 1537 1535 1533 1532 1530 1527 1526 1524 1523 1522 1521 1520 1517 1513 1511 1505 1497 1499 1502
1577 1577 1576 1576 1574 1573 1571 1569 1567 1565 1562 1559 1555 1553 1552 1550 1548 1547 1546 1547 1548 1547 1545 1544 1544 1542 1542 1540 1537 1535 1533 1532 1530 1528 1526 1524 1523 1521 1519 1514 1512 1508 1506 1509 1504 1498 1497
1577 1577 1576 1575 1574 1573 1571 1569 1567 1564 1562 1558 1555 1553 1550 1548 1547 1545 1545 1546 1546 1546 1545 1543 1543 1545 1542 1540 1537 1534 1532 1530 1529 1527 1526 1525 1522 1519 1515 1510 1499 1511 1512 1509 1506 1494 1496
1576 1576 1576 1575 1574 1573 1571 1569 1567 1564 1562 1558 1555 1552 1550 1547 1546 1545 1546 1546 1549 1547 1544 1544 1543 1542 1541 1539 1536 1534 1531 1529 1527 1527 1523 1525 1520 1508 1507 1507 1507 1509 1503 1498 1490 1489 1491
1575 1575 1575 1575 1573 1572 1571 1569 1566 1564 1561 1558 1554 1552 1549 1547 1546 1546 1546 1546 1546 1547 1544 1542 1542 1540 1539 1537 1536 1533 1532 1531 1527 1523 1523 1521 1515 1509 1510 1509 1509 1506 1503 1494 1489 1489 1489
1575 1574 1573 1573 1572 1572 1570 1568 1566 1564 1561 1558 1554 1551 1549 1547 1546 1546 1545 1546 1545 1545 1545 1542 1540 1539 1538 1537 1535 1533 1532 1529 1526 1521 1519 1518 1509 1512 1512 1508 1507 1501 1497 1492 1491 1488 1486
1574 1574 1572 1571 1570 1569 1569 1567 1565 1563 1561 1557 1554 1551 1549 1547 1548 1546 1546 1546 1545 1545 1544 1541 1539 1538 1538 1535 1534 1531 1530 1530 1525 1520 1517 1513 1511 1510 1507 1506 1506 1495 1493 1494 1492 1490 1484
1573 1572 1572 1571 1570 1568 1567 1566 1563 1561 1560 1557 1554 1551 1548 1547 1546 1546 1547 1545 1545 1546 1546 1542 1539 1537 1535 1537 1534 1530 1529 1527 1523 1521 1522 1509 1508 1507 1504 1508 1509 1501 1501 1495 1490 1488 1489
1572 1572 1571 1570 1568 1568 1566 1565 1563 1561 1559 1556 1554 1551 1549 1547 1546 1546 1545 1545 1547 1549 1545 1540 1539 1537 1535 1534 1533 1530 1528 1527 1524 1520 1518 1511 1511 1510 1506 1504 1503 1501 1496 1491 1489 1485 1487
1571 1570 1569 1568 1567 1566 1565 1563 1562 1560 1558 1556 1553 1551 1549 1547 1547 1545 1544 1546 1549 1543 1546 1541 1539 1539 1539 1534 1531 1532 1529 1526 1525 1526 1516 1509 1506 1507 1506 1499 1498 1494 1488 1493 1491 1487 1483
1569 1568 1567 1566 1565 1564 1563 1561 1560 1558 1556 1554 1553 1550 1548 1547 1545 1546 1545 1547 1547 1545 1540 1542 1541 1539 1536 1536 1532 1530 1528 1525 1530 1529 1523 1521 1509 1504 1505 1504 1499 1496 1493 1495 1502 1489 1481
1566 1565 1564 1564 1563 1562 1561 1559 1557 1555 1554 1552 1551 1549 1547 1546 1546 1544 1549 1542 1540 1538 1539 1540 1538 1536 1534 1536 1537 1531 1528 1528 1529 1529 1525 1519 1506 1506 1506 1507 1508 1499 1498 1499 1497 1502 1495
1561 1561 1560 1560 1560 1559 1559 1558 1556 1555 1551 1550 1548 1546 1545 1545 1545 1545 1547 1540 1538 1539 1539 1540 1536 1538 1534 1533 1534 1532 1527 1526 1528 1530 1530 1525 1518 1506 1505 1507 1507 1503 1505 1498 1495 1494 1485
1556 1555 1555 1555 1555 1555 1554 1554 1553 1552 1551 1549 1547 1545 1543 1543 1545 1544 1543 1538 1538 1538 1539 1539 1537 1536 1535 1534 1534 1531 1528 1528 1528 1529 1531 1528 1527 1503 1506 1503 1503 1501 1499 1501 1501 1497 1489
1548 1549 1550 1550 1550 1551 1550 1549 1549 1549 1549 1548 1546 1545 1542 1542 1546 1544 1538 1535 1535 1537 1538 1540 1539 1537 1534 1534 1533 1531 1528 1526 1528 1529 1527 1527 1524 1514 1500 1507 1508 1505 1501 1501 1496 1494 1497
1542 1542 1542 1543 1544 1546 1546 1545 1545 1545 1545 1546 1545 1542 1540 1541 1540 1538 1537 1535 1533 1534 1536 1537 1537 1536 1538 1534 1531 1528 1527 1526 1526 1528 1526 1527 1520 1512 1493 1505 1506 1503 1503 1503 1503 1501 1490
1536 1537 1535 1536 1535 1539 1540 1541 1540 1541 1542 1543 1544 1539 1537 1536 1535 1535 1533 1531 1531 1531 1531 1533 1534 1535 1536 1534 1532 1528 1525 1524 1525 1526 1526 1528 1523 1513 1502 1495 1503 1501 1501 1501 1498 1496 1484
1530 1530 1529 1528 1529 1530 1532 1534 1536 1536 1538 1541 1539 1532 1529 1528 1529 1529 1530 1528 1527 1527 1530 1530 1531 1531 1530 1529 1529 1528 1526 1524 1524 1524 1526 1526 1518 1518 1509 1503 1504 1502 1499 1498 1497 1489 1487
1524 1522 1521 1520 1521 1521 1523 1525 1529 1531 1533 1534 1531 1528 1526 1525 1524 1525 1526 1522 1522 1522 1523 1525 1525 1522 1527 1526 1520 1519 1521 1522 1518 1525 1524 1525 1515 1517 1507 1501 1503 1498 1492 1494 1495 1492 1490
1518 1516 1514 1513 1513 1513 1513 1516 1520 1523 1525 1524 1522 1520 1520 1517 1519 1520 1515 1512 1513 1518 1515 1514 1516 1519 1521 1517 1518 1518 1519 1518 1519 1519 1519 1520 1516 1513 1500 1500 1496 1485 1479 1488 1488 1489 1486
1512 1510 1507 1505 1503 1503 1504 1505 1508 1512 1512 1515 1516 1518 1517 1505 1510 1508 1506 1508 1509 1512 1511 1513 1514 1515 1515 1514 1516 1514 1516 1515 1516 1517 1518 1517 1516 1515 1505 1499 1490 1480 1482 1483 1483 1483 1484
1507 1504 1502 1498 1494 1493 1494 1494 1496 1500 1501 1501 1506 1511 1507 1498 1500 1500 1502 1502 1503 1506 1511 1509 1508 1511 1511 1513 1515 1510 1510 1513 1514 1516 1517 1518 1515 1510 1507 1500 1482 1481 1483 1481 1479 1483 1485
1502 1500 1495 1491 1487 1483 1481 1480 1481 1483 1489 1492 1492 1499 1500 1499 1484 1492 1495 1495 1497 1500 1503 1504 1506 1507 1509 1512 1512 1510 1505 1500 1505 1514 1517 1518 1517 1513 1514 1505 1484 1481 1484 1483 1482 1480 1485
1496 1494 1489 1483 1476 1473 1468 1464 1460 1462 1469 1476 1475 1486 1493 1487 1482 1485 1485 1487 1489 1492 1493 1497 1503 1507 1506 1507 1507 1506 1502 1504 1499 1501 1511 1513 1513 1509 1506 1502 1486 1483 1484 1484 1481 1488 1487
1492 1488 1482 1475 1469 1464 1456 1445 1443 1446 1454 1465 1465 1470 1478 1476 1476 1477 1478 1479 1482 1485 1486 1492 1498 1501 1506 1503 1500 1497 1499 1498 1499 1495 1498 1497 1499 1503 1507 1506 1500 1485 1483 1483 1489 1488 1487
1486 1482 1476 1470 1461 1457 1449 1438 1432 1432 1438 1450 1453 1456 1466 1471 1466 1469 1472 1473 1476 1479 1482 1484 1481 1484 1488 1492 1494 1494 1495 1498 1495 1488 1494 1492 1485 1487 1494 1487 1486 1486 1488 1489 1488 1486 1485